IKONOS 2

导读

IKONOS 2是美国洛克希德·马丁公司建造的商业遥感卫星,于1999年9月24日在美国范登堡空军基地由雅典娜2号运载火箭发射升空。它是世界上首颗分辨率优于1米的商业遥感卫星,可提供0.8米全色、3.2米多光谱影像,融合后得到0.8米彩色影像,重访周期1-3天,能直接向全球地面站传输数据。其设计寿命7年,实际超额服役至2015年退役,数据广泛应用于国防、制图、航运等领域,开创了高分辨率商业遥感新时代。

基本信息
目录编号:
25919
目录名称:
IKONOS 2
国际标识:
1999-051A
轨道中心:
EARTH
卫星名称:
IKONOS 2
卫星全名:
--
卫星状态:
在轨 (已飞行9842 天)
发射日期:
1999-09-24 UTC
国别 :
美国 (US)
星等 :
--
轨道信息
数据来源 国际轨道数据
星历时间: 2026-09-04T00:02:31+0800
22小时前
查看轨道信息
半长轴: 6952.525km
偏心率: 0.0005033
轨道倾角: 98.123°
近地点辐角 318.215°
升交点赤经 138.717°
平近点角 41.869°
近地点: 570.888km
远地点: 577.888km
周期: 96.155分钟
每日圈数: 14.975765
详细信息
使用方式:
暂无
2D轨道图
3D轨道图
轨道高度分析图
轨道倾角分析图
轨道综合分析图
查看轨道综合分析图